Macomb, IL

4:24 AM CDT on March 28, 2017 (GMT -0500)
Macomb Municipal

Weather History for KMQB - November, 2013

Change the Weather History Date:

Saturday, November 2, 2013

  Actual Average (KBRL) Record (KBRL)
Temperature  
Mean Temperature 44 °F -  
Max Temperature 54 °F 53 °F 79 °F (1938)
Min Temperature 32 °F 38 °F 13 °F (1951)
Degree Days  
Heating Degree Days 22    
Moisture  
Dew Point 37 °F    
Average Humidity 73    
Maximum Humidity 94    
Minimum Humidity 44    
Precipitation  
Precipitation 0.00 in - - ()
Sea Level Pressure  
Sea Level Pressure 30.03 in    
Wind  
Wind Speed 11 mph (WNW)    
Max Wind Speed 18 mph    
Max Gust Speed 26 mph    
Visibility 10 miles    
Events Rain    
Averages and records for this station are not official NWS values.
T = Trace of Precipitation, MM = Missing Value Source: NWS Daily Summary

Daily Weather History Graph

Daily Weather History Graph

Search for Another Location

Airport or City:

Trip Planner

Search our weather history database for the weather conditions in past years. The results will help you decide how hot, cold, wet, or windy it might be!

Date:

Astronomy

Nov. 02, 2013 Rise Set
Actual Time 7:34 AM CDT 5:57 PM CDT
Civil Twilight 7:05 AM CDT 6:26 PM CDT
Nautical Twilight 6:33 AM CDT 6:58 PM CDT
Astronomical Twilight 6:01 AM CDT 7:30 PM CDT
Moon 6:31 AM CDT (11/2) 5:29 PM CDT (11/2)
Length of Visible Light 11h 20m
Length of Day
10h 23m
Waning Crescent, 1% of the Moon is Illuminated
Nov 2
Waning Crescent
Nov 3
New
Nov 9
First Quarter
Nov 17
Full
Nov 25
Last Quarter

Hourly Weather History & Observations

Time (CDT) Temp. Windchill Dew Point Humidity Pressure Visibility Wind Dir Wind Speed Gust Speed Precip Events Conditions
12:15 AM 46.4 °F 41.5 °F 40.5 °F 80% 29.83 in 10.0 mi West 10.4 mph - N/A   Scattered Clouds
12:35 AM 46.4 °F 41.1 °F 40.1 °F 79% 29.83 in 10.0 mi West 11.5 mph - N/A   Scattered Clouds
12:55 AM 45.9 °F 40.8 °F 40.8 °F 83% 29.83 in 10.0 mi West 10.4 mph - N/A   Mostly Cloudy
1:15 AM 46.8 °F - 41.7 °F 83% 29.83 in 10.0 mi West 9.2 mph - N/A Rain Light Rain
1:35 AM 46.4 °F 42.4 °F 41.9 °F 84% 29.84 in 10.0 mi West 8.1 mph - N/A   Overcast
1:55 AM 46.4 °F 41.9 °F 41.9 °F 84% 29.84 in 10.0 mi West 9.2 mph - N/A   Overcast
2:15 AM 46.8 °F - 42.6 °F 85% 29.84 in 10.0 mi West 8.1 mph - N/A   Overcast
2:35 AM 47.3 °F - 42.8 °F 84% 29.85 in 10.0 mi West 10.4 mph - N/A   Overcast
2:55 AM 46.8 °F - 42.8 °F 86% 29.85 in 10.0 mi WNW 10.4 mph - N/A   Mostly Cloudy
3:15 AM 46.6 °F - 42.4 °F 85% 29.85 in 10.0 mi WNW 10.4 mph - N/A   Clear
3:35 AM 45.9 °F 41.2 °F 41.9 °F 86% 29.85 in 10.0 mi WNW 9.2 mph - N/A   Clear
3:55 AM 45.0 °F 39.7 °F 41.4 °F 87% 29.86 in 10.0 mi WNW 10.4 mph - N/A   Clear
4:15 AM 45.7 °F 41.0 °F 41.9 °F 87% 29.87 in 10.0 mi WNW 9.2 mph - N/A   Mostly Cloudy
4:35 AM 46.4 °F 42.4 °F 42.8 °F 87% 29.88 in 10.0 mi WNW 8.1 mph - N/A   Overcast
4:55 AM 46.8 °F - 42.8 °F 86% 29.88 in 10.0 mi WNW 9.2 mph - N/A   Overcast
5:15 AM 46.8 °F - 42.8 °F 86% 29.89 in 10.0 mi NW 10.4 mph - N/A   Overcast
5:35 AM 46.8 °F - 42.4 °F 85% 29.90 in 10.0 mi NW 11.5 mph - N/A   Overcast
5:55 AM 46.8 °F - 42.3 °F 84% 29.92 in 10.0 mi NW 12.7 mph - N/A   Overcast
6:15 AM 45.5 °F 39.9 °F 41.2 °F 85% 29.93 in 10.0 mi NW 11.5 mph 16.1 mph N/A   Scattered Clouds
6:35 AM 44.4 °F 38.2 °F 40.5 °F 86% 29.93 in 10.0 mi NW 12.7 mph - N/A   Clear
6:55 AM 43.9 °F 37.9 °F 40.1 °F 87% 29.94 in 10.0 mi NW 11.5 mph - N/A   Clear
7:15 AM 42.8 °F 36.2 °F 39.7 °F 89% 29.95 in 10.0 mi NW 12.7 mph 18.4 mph N/A   Clear
7:35 AM 42.8 °F 35.8 °F 39.4 °F 88% 29.96 in 10.0 mi NW 13.8 mph - N/A   Scattered Clouds
7:55 AM 42.3 °F 35.9 °F 39.2 °F 89% 29.97 in 10.0 mi NW 11.5 mph - N/A   Scattered Clouds
8:15 AM 42.1 °F 36.1 °F 38.8 °F 88% 29.98 in 10.0 mi NW 10.4 mph - N/A   Clear
8:35 AM 42.6 °F 35.9 °F 38.7 °F 86% 30.00 in 10.0 mi NW 12.7 mph 16.1 mph N/A   Scattered Clouds
8:55 AM 43.3 °F 36.5 °F 37.8 °F 81% 30.01 in 10.0 mi NW 13.8 mph 20.7 mph N/A   Mostly Cloudy
9:15 AM 43.5 °F 35.5 °F 37.4 °F 79% 30.03 in 10.0 mi NW 18.4 mph 25.3 mph N/A   Scattered Clouds
9:35 AM 44.1 °F 36.2 °F 36.5 °F 75% 30.04 in 10.0 mi NW 18.4 mph 26.5 mph N/A   Mostly Cloudy
9:55 AM 43.9 °F 37.2 °F 36.1 °F 74% 30.05 in 10.0 mi NW 13.8 mph 21.9 mph N/A   Scattered Clouds
10:15 AM 46.0 °F 39.0 °F 37.0 °F 71% 30.05 in 10.0 mi NNW 17.3 mph 24.2 mph N/A   Clear
10:35 AM 47.7 °F - 37.0 °F 67% 30.05 in 10.0 mi NNW 12.7 mph 21.9 mph N/A   Scattered Clouds
10:55 AM 48.6 °F - 35.8 °F 61% 30.06 in 10.0 mi NW 17.3 mph 21.9 mph N/A   Scattered Clouds
12:15 PM 51.4 °F - 36.0 °F 56% 30.08 in 10.0 mi NNW 15.0 mph 23.0 mph N/A   Clear
12:35 PM 52.2 °F - 36.3 °F 55% 30.08 in 10.0 mi NW 15.0 mph 24.2 mph N/A   Scattered Clouds
12:55 PM 52.7 °F - 37.8 °F 57% 30.07 in 10.0 mi WNW 18.4 mph 25.3 mph N/A   Mostly Cloudy
1:15 PM 51.8 °F - 37.0 °F 57% 30.07 in 10.0 mi WNW 15.0 mph - N/A   Scattered Clouds
1:35 PM 52.2 °F - 38.7 °F 60% 30.07 in 10.0 mi NW 16.1 mph 21.9 mph N/A   Scattered Clouds
1:55 PM 52.0 °F - 36.3 °F 55% 30.08 in 10.0 mi WNW 15.0 mph - N/A   Scattered Clouds
2:15 PM 53.2 °F - 34.7 °F 49% 30.08 in 10.0 mi NW 17.3 mph 24.2 mph N/A   Scattered Clouds
2:35 PM 52.3 °F - 34.7 °F 51% 30.08 in 10.0 mi NW 15.0 mph - N/A   Scattered Clouds
2:55 PM 54.0 °F - 34.5 °F 48% 30.08 in 10.0 mi WNW 15.0 mph - N/A   Scattered Clouds
3:15 PM 54.1 °F - 32.9 °F 45% 30.09 in 10.0 mi NW 18.4 mph 26.5 mph N/A   Mostly Cloudy
3:35 PM 54.0 °F - 33.6 °F 46% 30.09 in 10.0 mi WNW 18.4 mph 24.2 mph N/A   Mostly Cloudy
3:55 PM 53.4 °F - 32.0 °F 44% 30.10 in 10.0 mi NW 15.0 mph 23.0 mph N/A   Scattered Clouds
4:15 PM 52.7 °F - 32.4 °F 46% 30.10 in 10.0 mi WNW 16.1 mph - N/A   Scattered Clouds
4:35 PM 53.2 °F - 32.0 °F 44% 30.10 in 10.0 mi NW 11.5 mph 20.7 mph N/A   Scattered Clouds
4:55 PM 52.5 °F - 32.2 °F 46% 30.11 in 10.0 mi NW 12.7 mph 18.4 mph N/A   Mostly Cloudy
5:15 PM 52.2 °F - 32.2 °F 47% 30.11 in 10.0 mi NW 11.5 mph - N/A   Mostly Cloudy
5:35 PM 51.8 °F - 32.0 °F 47% 30.12 in 10.0 mi NW 13.8 mph 18.4 mph N/A   Mostly Cloudy
5:55 PM 50.9 °F - 32.0 °F 48% 30.12 in 10.0 mi NW 10.4 mph - N/A   Scattered Clouds
6:15 PM 50.0 °F - 32.0 °F 50% 30.12 in 10.0 mi NW 11.5 mph 16.1 mph N/A   Clear
6:35 PM 46.2 °F 42.7 °F 32.7 °F 59% 30.13 in 10.0 mi WNW 6.9 mph - N/A   Clear
6:55 PM 42.4 °F 38.1 °F 32.9 °F 69% 30.14 in 10.0 mi WNW 6.9 mph - N/A   Clear
7:15 PM 40.5 °F 35.8 °F 32.2 °F 72% 30.15 in 10.0 mi WNW 6.9 mph - N/A   Clear
7:35 PM 42.3 °F 38.6 °F 32.4 °F 68% 30.15 in 10.0 mi West 5.8 mph - N/A   Clear
7:55 PM 39.7 °F 34.3 °F 32.0 °F 74% 30.16 in 10.0 mi WNW 8.1 mph - N/A   Clear
8:15 PM 38.1 °F 32.9 °F 32.0 °F 79% 30.17 in 10.0 mi WNW 6.9 mph - N/A   Clear
8:35 PM 39.2 °F 34.2 °F 31.8 °F 75% 30.17 in 10.0 mi West 6.9 mph - N/A   Clear
8:55 PM 36.9 °F 31.4 °F 31.8 °F 82% 30.17 in 10.0 mi West 6.9 mph - N/A   Clear
9:15 PM 37.0 °F 31.6 °F 32.0 °F 82% 30.17 in 10.0 mi West 6.9 mph - N/A   Clear
9:35 PM 37.6 °F 32.3 °F 32.2 °F 81% 30.18 in 10.0 mi WSW 6.9 mph - N/A   Clear
9:55 PM 36.5 °F 31.8 °F 32.0 °F 84% 30.18 in 10.0 mi West 5.8 mph - N/A   Clear
10:15 PM 35.8 °F - 31.8 °F 86% 30.18 in 10.0 mi Calm Calm - N/A   Clear
10:35 PM 36.9 °F - 32.0 °F 83% 30.18 in 10.0 mi Calm Calm - N/A   Clear
10:55 PM 35.8 °F 33.0 °F 31.5 °F 84% 30.18 in 10.0 mi West 3.5 mph - N/A   Clear
11:15 PM 34.7 °F 30.6 °F 31.6 °F 89% 30.19 in 10.0 mi West 4.6 mph - N/A   Clear
11:35 PM 33.8 °F 30.8 °F 31.1 °F 90% 30.19 in 10.0 mi WSW 3.5 mph - N/A   Clear
11:55 PM 32.0 °F - 30.6 °F 94% 30.19 in 10.0 mi Calm Calm - N/A   Clear